| time (UTC) | temp F | wind direction | speed MPH | gust MPH | rain 1hr in | rain 24hr in | rain mn in | humidity % | barometer mb |
| 20260506044007 | 63 | 300 | 1.0 | 4.0 | 0.00 | 0.28 | 0.14 | 52 | 1013.1 |
| 20260506043515 | 63 | 300 | 1.0 | 4.0 | 0.00 | 0.28 | 0.14 | 51 | 1013.1 |
| 20260506043033 | 63 | 300 | 1.0 | 5.0 | 0.00 | 0.27 | 0.12 | 52 | 1019.0 |
| 20260506042508 | 63 | 300 | 1.0 | 5.0 | 0.00 | 0.28 | 0.14 | 51 | 1013.0 |
| 20260506042012 | 63 | 300 | 2.0 | 7.0 | 0.00 | 0.28 | 0.14 | 51 | 1013.0 |
| 20260506041533 | 64 | 300 | 2.0 | 6.0 | 0.00 | 0.28 | 0.12 | 51 | 1018.8 |
| 20260506041530 | 63 | 300 | 2.0 | 7.0 | 0.00 | 0.28 | 0.14 | 51 | 1012.8 |
| 20260506041009 | 64 | 304 | 2.0 | 7.0 | 0.00 | 0.28 | 0.14 | 51 | 1012.7 |
| 20260506040511 | 64 | 308 | 3.0 | 7.0 | 0.00 | 0.28 | 0.14 | 50 | 1012.6 |
| 20260506040031 | 64 | 281 | 2.0 | 7.0 | 0.00 | 0.28 | 0.12 | 50 | 1018.6 |
| 20260506040029 | 64 | 280 | 2.0 | 7.0 | 0.00 | 0.28 | 0.14 | 50 | 1012.5 |
| 20260506035510 | 64 | 283 | 2.0 | 6.0 | 0.00 | 0.28 | 0.14 | 49 | 1012.3 |
| 20260506035009 | 64 | 286 | 2.0 | 7.0 | 0.00 | 0.28 | 0.14 | 49 | 1012.3 |
| 20260506034531 | 65 | 286 | 2.0 | 9.0 | 0.00 | 0.28 | 0.12 | 49 | 1018.4 |
| 20260506034009 | 65 | 288 | 3.0 | 15.0 | 0.00 | 0.28 | 0.14 | 47 | 1012.1 |
| 20260506033511 | 65 | 273 | 5.0 | 15.0 | 0.00 | 0.28 | 0.14 | 47 | 1012.1 |
| 20260506033030 | 65 | 304 | 5.0 | 15.0 | 0.00 | 0.28 | 0.12 | 47 | 1018.2 |
| 20260506033028 | 65 | 276 | 4.0 | 14.0 | 0.00 | 0.28 | 0.14 | 46 | 1012.1 |
| 20260506032507 | 65 | 274 | 4.0 | 14.0 | 0.00 | 0.28 | 0.14 | 46 | 1011.9 |
| 20260506032014 | 65 | 283 | 5.0 | 14.0 | 0.00 | 0.28 | 0.14 | 46 | 1011.8 |
| 20260506031534 | 66 | 283 | 5.0 | 13.0 | 0.00 | 0.28 | 0.12 | 46 | 1017.8 |
| 20260506031531 | 65 | 284 | 6.0 | 13.0 | 0.00 | 0.28 | 0.14 | 46 | 1011.7 |
| 20260506031013 | 66 | 276 | 5.0 | 12.0 | 0.00 | 0.28 | 0.14 | 45 | 1011.5 |
| 20260506030509 | 66 | 255 | 5.0 | 12.0 | 0.00 | 0.28 | 0.14 | 44 | 1011.4 |
| 20260506030029 | 66 | 252 | 4.0 | 12.0 | 0.00 | 0.28 | 0.14 | 42 | 1011.3 |
| 20260506025511 | 66 | 263 | 3.0 | 11.0 | 0.00 | 0.30 | 0.14 | 38 | 1011.2 |
| 20260506025013 | 66 | 300 | 3.0 | 11.0 | 0.00 | 0.30 | 0.14 | 37 | 1011.2 |
| 20260506024534 | 67 | 263 | 4.0 | 15.0 | 0.00 | 0.28 | 0.12 | 38 | 1017.4 |
| 20260506024010 | 67 | 272 | 4.0 | 16.0 | 0.00 | 0.30 | 0.14 | 36 | 1011.0 |
| 20260506023512 | 67 | 264 | 6.0 | 15.0 | 0.00 | 0.30 | 0.14 | 36 | 1011.0 |
| 20260506023030 | 67 | 269 | 7.0 | 15.0 | 0.00 | 0.30 | 0.14 | 35 | 1010.9 |
| 20260506023028 | 67 | 292 | 8.0 | 15.0 | 0.00 | 0.28 | 0.12 | 36 | 1017.1 |
| 20260506022512 | 67 | 308 | 5.0 | 15.0 | 0.00 | 0.30 | 0.14 | 34 | 1010.8 |
| 20260506022011 | 67 | 275 | 5.0 | 16.0 | 0.00 | 0.30 | 0.14 | 33 | 1010.7 |
| 20260506021528 | 68 | 249 | 7.0 | 16.0 | 0.00 | 0.30 | 0.14 | 33 | 1010.7 |
| 20260506021010 | 68 | 274 | 4.0 | 14.0 | 0.00 | 0.30 | 0.14 | 33 | 1010.6 |
| 20260506020508 | 68 | 296 | 6.0 | 13.0 | 0.00 | 0.30 | 0.14 | 33 | 1010.5 |
| 20260506020030 | 68 | 285 | 7.0 | 15.0 | 0.00 | 0.30 | 0.14 | 33 | 1010.5 |
| 20260506020027 | 68 | 281 | 8.0 | 13.0 | 0.00 | 0.33 | 0.12 | 33 | 1016.6 |
| 20260506015511 | 69 | 281 | 7.0 | 15.0 | 0.00 | 0.33 | 0.14 | 32 | 1010.5 |
| 20260506015011 | 69 | 278 | 6.0 | 17.0 | 0.00 | 0.33 | 0.14 | 31 | 1010.4 |
| 20260506014530 | 69 | 265 | 6.0 | 17.0 | 0.00 | 0.33 | 0.14 | 31 | 1010.4 |
| 20260506014527 | 69 | 250 | 5.0 | 17.0 | 0.00 | 0.33 | 0.12 | 32 | 1016.6 |
| 20260506014009 | 69 | 265 | 10.0 | 17.0 | 0.00 | 0.33 | 0.14 | 32 | 1010.4 |
| 20260506013510 | 69 | 286 | 8.0 | 17.0 | 0.00 | 0.33 | 0.14 | 32 | 1010.3 |
| 20260506013027 | 70 | 298 | 11.0 | 17.0 | 0.00 | 0.33 | 0.12 | 33 | 1016.6 |
| 20260506012510 | 70 | 268 | 6.0 | 21.0 | 0.00 | 0.33 | 0.14 | 33 | 1010.4 |
| 20260506012013 | 70 | 279 | 8.0 | 21.0 | 0.00 | 0.33 | 0.14 | 33 | 1010.3 |
| 20260506011528 | 70 | 267 | 9.0 | 21.0 | 0.00 | 0.33 | 0.14 | 32 | 1010.3 |
| 20260506011011 | 70 | 303 | 7.0 | 20.0 | 0.00 | 0.33 | 0.14 | 32 | 1010.2 |
| 20260506010508 | 71 | 345 | 9.0 | 19.0 | 0.00 | 0.33 | 0.14 | 32 | 1010.3 |
| 20260506010034 | 71 | 291 | 7.0 | 15.0 | 0.00 | 0.33 | 0.14 | 32 | 1010.3 |
| 20260506010025 | 71 | 276 | 8.0 | 19.0 | 0.00 | 0.34 | 0.12 | 32 | 1016.5 |
| 20260506005509 | 72 | 275 | 9.0 | 15.0 | 0.00 | 0.34 | 0.14 | 31 | 1010.3 |
| 20260506005012 | 72 | 276 | 5.0 | 17.0 | 0.00 | 0.34 | 0.14 | 32 | 1010.1 |
| 20260506004541 | 73 | 267 | 5.0 | 17.0 | 0.00 | 0.34 | 0.14 | 30 | 1010.0 |
| 20260506004523 | 73 | 296 | 6.0 | 17.0 | 0.00 | 0.34 | 0.12 | 31 | 1016.2 |
| 20260506004010 | 73 | 291 | 6.0 | 14.0 | 0.00 | 0.34 | 0.14 | 31 | 1010.0 |
| 20260506003513 | 73 | 274 | 7.0 | 14.0 | 0.00 | 0.34 | 0.14 | 30 | 1010.0 |
| 20260506003032 | 73 | 276 | 5.0 | 14.0 | 0.00 | 0.34 | 0.14 | 30 | 1009.9 |
| 20260506003023 | 73 | 275 | 6.0 | 14.0 | 0.00 | 0.34 | 0.12 | 31 | 1016.1 |
| 20260506002510 | 73 | 207 | 4.0 | 12.0 | 0.00 | 0.34 | 0.14 | 29 | 1010.0 |
| 20260506002018 | 74 | 234 | 6.0 | 14.0 | 0.00 | 0.34 | 0.14 | 27 | 1009.9 |
| 20260506001530 | 75 | 226 | 5.0 | 15.0 | 0.00 | 0.34 | 0.14 | 28 | 1009.9 |
| 20260506001522 | 75 | 228 | 5.0 | 14.0 | 0.00 | 0.34 | 0.12 | 28 | 1016.0 |
| 20260506001008 | 75 | 207 | 7.0 | 15.0 | 0.00 | 0.34 | 0.14 | 27 | 1009.9 |
| 20260506000511 | 76 | 222 | 7.0 | 14.0 | 0.00 | 0.34 | 0.14 | 26 | 1009.8 |
| 20260506000029 | 76 | 227 | 5.0 | 12.0 | 0.00 | 0.34 | 0.14 | 26 | 1009.8 |
| 20260506000021 | 76 | 228 | 6.0 | 12.0 | 0.00 | 0.34 | 0.12 | 26 | 1015.9 |
| 20260505235509 | 77 | 227 | 6.0 | 13.0 | 0.00 | 0.34 | 0.14 | 25 | 1009.7 |
| 20260505235012 | 76 | 227 | 4.0 | 13.0 | 0.00 | 0.34 | 0.14 | 26 | 1009.7 |
| 20260505234602 | 76 | 257 | 4.0 | 14.0 | 0.00 | 0.34 | 0.14 | 26 | 1009.6 |
| 20260505234546 | 77 | 286 | 5.0 | 12.0 | 0.00 | 0.34 | 0.12 | 26 | 1015.7 |
| 20260505234011 | 76 | 215 | 5.0 | 14.0 | 0.00 | 0.34 | 0.14 | 25 | 1009.5 |
| 20260505233509 | 76 | 244 | 6.0 | 13.0 | 0.00 | 0.34 | 0.14 | 26 | 1009.6 |
| 20260505233032 | 76 | 223 | 5.0 | 15.0 | 0.00 | 0.34 | 0.14 | 27 | 1009.5 |
| 20260505233021 | 76 | 217 | 5.0 | 13.0 | 0.00 | 0.34 | 0.12 | 27 | 1015.6 |
| 20260505232509 | 76 | 234 | 6.0 | 16.0 | 0.00 | 0.34 | 0.14 | 26 | 1009.5 |
| 20260505232012 | 76 | 220 | 5.0 | 17.0 | 0.00 | 0.34 | 0.14 | 26 | 1009.5 |
| 20260505231535 | 77 | 213 | 6.0 | 17.0 | 0.00 | 0.34 | 0.14 | 26 | 1009.5 |
| 20260505231520 | 77 | 211 | 6.0 | 17.0 | 0.00 | 0.34 | 0.12 | 27 | 1015.6 |
| 20260505231009 | 77 | 218 | 7.0 | 16.0 | 0.00 | 0.34 | 0.14 | 26 | 1009.4 |
| 20260505230513 | 77 | 267 | 3.0 | 15.0 | 0.00 | 0.34 | 0.14 | 27 | 1009.4 |
| 20260505230032 | 77 | 280 | 6.0 | 16.0 | 0.00 | 0.34 | 0.14 | 28 | 1009.6 |
| 20260505230018 | 77 | 279 | 5.0 | 15.0 | 0.00 | 0.34 | 0.12 | 28 | 1015.6 |
| 20260505225512 | 77 | 205 | 7.0 | 16.0 | 0.00 | 0.34 | 0.14 | 27 | 1009.6 |
| 20260505225011 | 77 | 237 | 5.0 | 13.0 | 0.00 | 0.34 | 0.14 | 27 | 1009.6 |
| 20260505224534 | 76 | 257 | 6.0 | 13.0 | 0.00 | 0.34 | 0.14 | 27 | 1009.6 |
| 20260505224525 | 77 | 293 | 7.0 | 12.0 | 0.00 | 0.34 | 0.12 | 28 | 1015.7 |
| 20260505224014 | 76 | 207 | 5.0 | 14.0 | 0.00 | 0.34 | 0.14 | 28 | 1009.6 |
| 20260505223518 | 76 | 221 | 7.0 | 14.0 | 0.00 | 0.34 | 0.14 | 28 | 1009.9 |
| 20260505223031 | 75 | 197 | 5.0 | 13.0 | 0.00 | 0.34 | 0.14 | 31 | 1009.7 |
| 20260505223014 | 75 | 263 | 5.0 | 12.0 | 0.00 | 0.34 | 0.12 | 31 | 1015.8 |
| 20260505222511 | 74 | 269 | 4.0 | 11.0 | 0.00 | 0.34 | 0.14 | 30 | 1009.7 |
| 20260505222015 | 74 | 209 | 4.0 | 15.0 | 0.00 | 0.34 | 0.14 | 32 | 1009.8 |
| 20260505221532 | 73 | 198 | 5.0 | 15.0 | 0.00 | 0.34 | 0.14 | 31 | 1009.9 |
| 20260505221514 | 73 | 200 | 5.0 | 14.0 | 0.00 | 0.34 | 0.12 | 32 | 1016.0 |
| 20260505221007 | 73 | 215 | 7.0 | 15.0 | 0.00 | 0.34 | 0.14 | 30 | 1009.9 |
| 20260505220511 | 73 | 210 | 6.0 | 12.0 | 0.00 | 0.34 | 0.14 | 30 | 1009.9 |
| 20260505220029 | 74 | 197 | 6.0 | 12.0 | 0.00 | 0.34 | 0.14 | 30 | 1009.9 |
| 20260505220013 | 74 | 199 | 6.0 | 12.0 | 0.00 | 0.34 | 0.12 | 31 | 1016.1 |
| 20260505215508 | 74 | 228 | 5.0 | 12.0 | 0.00 | 0.34 | 0.14 | 31 | 1010.0 |
| 20260505215010 | 75 | 195 | 4.0 | 18.0 | 0.00 | 0.34 | 0.14 | 31 | 1010.1 |
| 20260505214538 | 75 | 221 | 7.0 | 18.0 | 0.00 | 0.34 | 0.14 | 31 | 1010.2 |
| 20260505214516 | 75 | 221 | 8.0 | 18.0 | 0.00 | 0.34 | 0.12 | 31 | 1016.4 |
| 20260505214032 | 74 | 282 | 7.0 | 18.0 | 0.00 | 0.34 | 0.14 | 31 | 1010.1 |
| 20260505213512 | 75 | 208 | 6.0 | 18.0 | 0.00 | 0.34 | 0.14 | 30 | 1010.2 |
| 20260505213029 | 76 | 230 | 8.0 | 18.0 | 0.00 | 0.34 | 0.14 | 30 | 1010.3 |
| 20260505213013 | 76 | 230 | 8.0 | 18.0 | 0.00 | 0.34 | 0.12 | 31 | 1016.5 |
| 20260505212509 | 76 | 227 | 6.0 | 18.0 | 0.00 | 0.34 | 0.14 | 30 | 1010.4 |
| 20260505212012 | 76 | 193 | 6.0 | 18.0 | 0.00 | 0.34 | 0.14 | 29 | 1010.3 |
| 20260505211530 | 76 | 242 | 9.0 | 18.0 | 0.00 | 0.34 | 0.14 | 30 | 1010.4 |
| 20260505211511 | 76 | 242 | 9.0 | 17.0 | 0.00 | 0.34 | 0.12 | 31 | 1016.6 |
| 20260505211012 | 75 | 259 | 5.0 | 14.0 | 0.00 | 0.34 | 0.14 | 32 | 1010.4 |
| 20260505210517 | 75 | 188 | 7.0 | 16.0 | 0.00 | 0.34 | 0.14 | 31 | 1010.6 |
| 20260505210031 | 75 | 213 | 7.0 | 21.0 | 0.00 | 0.34 | 0.14 | 31 | 1010.7 |
| 20260505210013 | 75 | 216 | 7.0 | 21.0 | 0.00 | 0.34 | 0.12 | 31 | 1016.8 |
| 20260505205512 | 75 | 189 | 11.0 | 22.0 | 0.00 | 0.34 | 0.14 | 30 | 1010.6 |
| 20260505205016 | 75 | 192 | 9.0 | 22.0 | 0.00 | 0.34 | 0.14 | 31 | 1010.8 |
| 20260505204530 | 75 | 210 | 8.0 | 18.0 | 0.00 | 0.34 | 0.14 | 31 | 1010.7 |
| 20260505204508 | 75 | 209 | 9.0 | 16.0 | 0.00 | 0.34 | 0.12 | 31 | 1016.8 |
| 20260505204009 | 75 | 202 | 9.0 | 19.0 | 0.00 | 0.34 | 0.14 | 29 | 1010.8 |
| 20260505203510 | 76 | 188 | 8.0 | 19.0 | 0.00 | 0.34 | 0.14 | 32 | 1010.8 |
| 20260505203029 | 75 | 202 | 7.0 | 21.0 | 0.00 | 0.34 | 0.14 | 32 | 1010.6 |
| 20260505203006 | 75 | 202 | 8.0 | 18.0 | 0.00 | 0.34 | 0.12 | 32 | 1016.7 |
| 20260505202510 | 75 | 202 | 8.0 | 21.0 | 0.00 | 0.34 | 0.14 | 32 | 1010.8 |
| 20260505202015 | 74 | 184 | 8.0 | 21.0 | 0.00 | 0.34 | 0.14 | 33 | 1010.9 |
| 20260505201532 | 74 | 166 | 11.0 | 22.0 | 0.00 | 0.34 | 0.14 | 32 | 1011.0 |
| 20260505201505 | 74 | 173 | 10.0 | 21.0 | 0.00 | 0.34 | 0.12 | 32 | 1016.9 |
| 20260505201011 | 74 | 201 | 11.0 | 22.0 | 0.00 | 0.34 | 0.14 | 31 | 1010.9 |
| 20260505200510 | 74 | 219 | 7.0 | 22.0 | 0.00 | 0.34 | 0.14 | 33 | 1011.0 |
| 20260505200034 | 74 | 184 | 11.0 | 22.0 | 0.00 | 0.34 | 0.14 | 31 | 1011.1 |
| 20260505200007 | 74 | 232 | 12.0 | 22.0 | 0.00 | 0.34 | 0.12 | 32 | 1017.0 |
| 20260505195509 | 74 | 213 | 10.0 | 21.0 | 0.00 | 0.34 | 0.14 | 34 | 1011.0 |
| 20260505195011 | 74 | 188 | 9.0 | 22.0 | 0.00 | 0.34 | 0.14 | 35 | 1011.2 |
| 20260505194529 | 74 | 208 | 11.0 | 22.0 | 0.00 | 0.34 | 0.14 | 35 | 1011.3 |
| 20260505194501 | 74 | 215 | 11.0 | 21.0 | 0.00 | 0.34 | 0.12 | 35 | 1017.1 |
| 20260505194009 | 74 | 215 | 10.0 | 21.0 | 0.00 | 0.34 | 0.14 | 35 | 1011.2 |
| 20260505193511 | 73 | 252 | 11.0 | 21.0 | 0.00 | 0.34 | 0.14 | 37 | 1011.2 |
| 20260505193059 | 73 | 197 | 9.0 | 18.0 | 0.00 | 0.34 | 0.12 | 37 | 1017.1 |
| 20260505193032 | 73 | 222 | 10.0 | 20.0 | 0.00 | 0.34 | 0.14 | 36 | 1011.2 |
| 20260505192515 | 73 | 196 | 10.0 | 22.0 | 0.00 | 0.34 | 0.14 | 38 | 1011.3 |
| 20260505192013 | 73 | 210 | 9.0 | 21.0 | 0.00 | 0.34 | 0.14 | 40 | 1011.3 |
| 20260505191557 | 73 | 232 | 8.0 | 18.0 | 0.00 | 0.34 | 0.12 | 43 | 1017.1 |
| 20260505191532 | 73 | 197 | 9.0 | 18.0 | 0.00 | 0.34 | 0.14 | 42 | 1011.3 |
| 20260505191015 | 73 | 215 | 8.0 | 17.0 | 0.00 | 0.34 | 0.14 | 43 | 1011.4 |
| 20260505190510 | 73 | 242 | 10.0 | 16.0 | 0.00 | 0.34 | 0.14 | 44 | 1011.4 |
| 20260505190100 | 73 | 264 | 6.0 | 14.0 | 0.00 | 0.34 | 0.12 | 46 | 1017.1 |
| 20260505190031 | 73 | 201 | 7.0 | 15.0 | 0.00 | 0.34 | 0.14 | 46 | 1011.3 |
| 20260505185510 | 73 | 218 | 6.0 | 20.0 | 0.00 | 0.34 | 0.14 | 46 | 1011.4 |
| 20260505185014 | 72 | 229 | 9.0 | 20.0 | 0.00 | 0.34 | 0.14 | 46 | 1011.4 |
| 20260505184552 | 73 | 207 | 9.0 | 16.0 | 0.00 | 0.34 | 0.12 | 47 | 1017.3 |
| 20260505184529 | 72 | 200 | 10.0 | 17.0 | 0.00 | 0.34 | 0.14 | 47 | 1011.6 |
| 20260505184009 | 72 | 246 | 5.0 | 16.0 | 0.00 | 0.34 | 0.14 | 48 | 1011.5 |
| 20260505183511 | 72 | 224 | 8.0 | 15.0 | 0.00 | 0.34 | 0.14 | 49 | 1011.5 |
| 20260505183051 | 71 | 204 | 7.0 | 14.0 | 0.00 | 0.34 | 0.12 | 50 | 1017.5 |
| 20260505183041 | 71 | 202 | 7.0 | 15.0 | 0.00 | 0.34 | 0.14 | 48 | 1011.6 |
| 20260505182510 | 71 | 256 | 5.0 | 14.0 | 0.00 | 0.34 | 0.14 | 54 | 1011.7 |
| 20260505182017 | 70 | 268 | 4.0 | 11.0 | 0.00 | 0.34 | 0.14 | 53 | 1011.8 |
| 20260505181544 | 70 | 270 | 4.0 | 9.0 | 0.00 | 0.34 | 0.12 | 55 | 1017.6 |
| 20260505181533 | 70 | 271 | 3.0 | 8.0 | 0.00 | 0.34 | 0.14 | 54 | 1011.7 |
| 20260505181012 | 69 | 271 | 4.0 | 9.0 | 0.00 | 0.34 | 0.14 | 56 | 1011.8 |
| 20260505180514 | 69 | 273 | 3.0 | 10.0 | 0.00 | 0.34 | 0.14 | 53 | 1011.8 |
| 20260505180041 | 69 | 272 | 4.0 | 10.0 | 0.00 | 0.34 | 0.12 | 55 | 1017.7 |
| 20260505180031 | 69 | 271 | 4.0 | 10.0 | 0.00 | 0.34 | 0.14 | 56 | 1012.0 |
| 20260505175512 | 68 | 272 | 6.0 | 10.0 | 0.00 | 0.34 | 0.14 | 57 | 1012.2 |
| 20260505175008 | 68 | 276 | 4.0 | 9.0 | 0.00 | 0.34 | 0.14 | 57 | 1012.1 |
| 20260505174537 | 68 | 279 | 4.0 | 9.0 | 0.00 | 0.34 | 0.12 | 59 | 1017.9 |
| 20260505174529 | 67 | 279 | 3.0 | 9.0 | 0.00 | 0.34 | 0.14 | 58 | 1012.2 |
| 20260505174009 | 67 | 280 | 3.0 | 8.0 | 0.00 | 0.34 | 0.14 | 59 | 1012.2 |
| 20260505173509 | 67 | 282 | 3.0 | 7.0 | 0.00 | 0.34 | 0.14 | 58 | 1012.3 |
| 20260505173042 | 67 | 283 | 2.0 | 9.0 | 0.00 | 0.34 | 0.12 | 61 | 1018.1 |
| 20260505173038 | 67 | 283 | 2.0 | 9.0 | 0.00 | 0.34 | 0.14 | 60 | 1012.3 |
| 20260505172509 | 67 | 284 | 3.0 | 9.0 | 0.00 | 0.34 | 0.14 | 60 | 1012.3 |
| 20260505172015 | 66 | 283 | 0.0 | 9.0 | 0.00 | 0.34 | 0.14 | 60 | 1012.2 |
| 20260505171534 | 66 | 283 | 1.0 | 9.0 | 0.00 | 0.34 | 0.12 | 60 | 1018.0 |
| 20260505171010 | 66 | 286 | 1.0 | 9.0 | 0.00 | 0.34 | 0.14 | 60 | 1012.3 |
| 20260505170513 | 66 | 287 | 3.0 | 9.0 | 0.00 | 0.34 | 0.14 | 60 | 1012.2 |
| 20260505170035 | 66 | 287 | 2.0 | 9.0 | 0.00 | 0.34 | 0.12 | 61 | 1017.9 |
| 20260505165510 | 66 | 287 | 3.0 | 9.0 | 0.00 | 0.34 | 0.14 | 62 | 1012.3 |
| 20260505165011 | 65 | 288 | 1.0 | 10.0 | 0.00 | 0.34 | 0.14 | 62 | 1012.1 |
| 20260505164530 | 65 | 288 | 5.0 | 10.0 | 0.00 | 0.34 | 0.14 | 61 | 1012.1 |
| 20260505164009 | 65 | 71 | 2.0 | 8.0 | 0.00 | 0.34 | 0.14 | 65 | 1012.2 |
| 20260505163511 | 64 | 69 | 1.0 | 8.0 | 0.00 | 0.34 | 0.14 | 65 | 1012.1 |
| 20260505163031 | 64 | 69 | 2.0 | 8.0 | 0.00 | 0.34 | 0.14 | 67 | 1012.1 |
| 20260505163023 | 64 | 69 | 3.0 | 8.0 | 0.00 | 0.34 | 0.12 | 68 | 1017.6 |
| 20260505162509 | 63 | 89 | 0.0 | 4.0 | 0.00 | 0.34 | 0.14 | 68 | 1012.1 |
| 20260505162012 | 63 | 89 | 1.0 | 8.0 | 0.00 | 0.34 | 0.14 | 69 | 1012.2 |
| 20260505161529 | 62 | 0 | 2.0 | 8.0 | 0.00 | 0.34 | 0.14 | 71 | 1012.1 |
| 20260505161525 | 62 | 90 | 1.0 | 8.0 | 0.00 | 0.34 | 0.12 | 72 | 1017.8 |
| 20260505161011 | 62 | 0 | 1.0 | 7.0 | 0.00 | 0.34 | 0.14 | 71 | 1012.2 |
| 20260505160509 | 62 | 0 | 1.0 | 7.0 | 0.00 | 0.34 | 0.14 | 72 | 1012.2 |
| 20260505153035 | 61 | 90 | 1.0 | 4.0 | 0.00 | 0.34 | 0.14 | 76 | 1012.1 |
| 20260505153012 | 61 | 90 | 1.0 | 4.0 | 0.00 | 0.34 | 0.12 | 77 | 1017.6 |
| 20260505152511 | 61 | 90 | 1.0 | 6.0 | 0.00 | 0.34 | 0.14 | 77 | 1012.0 |
| 20260505152012 | 61 | 90 | 2.0 | 7.0 | 0.00 | 0.34 | 0.14 | 79 | 1012.0 |
| 20260505151529 | 60 | 92 | 3.0 | 7.0 | 0.00 | 0.34 | 0.14 | 80 | 1012.0 |
| 20260505151510 | 60 | 92 | 4.0 | 7.0 | 0.00 | 0.34 | 0.12 | 80 | 1017.5 |
| 20260505151009 | 60 | 0 | 1.0 | 6.0 | 0.00 | 0.34 | 0.14 | 81 | 1012.1 |
| 20260505150511 | 59 | 87 | 2.0 | 6.0 | 0.00 | 0.34 | 0.14 | 83 | 1012.2 |
| 20260505140517 | 58 | 89 | 2.0 | 6.0 | 0.00 | 0.34 | 0.14 | 90 | 1011.9 |
| 20260505125012 | 57 | 0 | 1.0 | 2.0 | 0.00 | 0.34 | 0.14 | 90 | 1010.9 |
| 20260505124548 | 57 | 89 | 0.0 | 2.0 | 0.00 | 0.34 | 0.12 | 90 | 1016.4 |
| 20260505124530 | 57 | 0 | 0.0 | 2.0 | 0.00 | 0.34 | 0.14 | 90 | 1011.0 |
| 20260505124013 | 57 | 0 | 0.0 | 2.0 | 0.00 | 0.34 | 0.14 | 90 | 1010.8 |
| 20260505123515 | 57 | 0 | 0.0 | 3.0 | 0.01 | 0.34 | 0.14 | 90 | 1010.8 |
| 20260505123043 | 57 | 89 | 0.0 | 3.0 | 0.01 | 0.34 | 0.12 | 91 | 1016.2 |
| 20260505123030 | 57 | 0 | 1.0 | 3.0 | 0.01 | 0.34 | 0.14 | 90 | 1010.8 |
| 20260505122509 | 57 | 0 | 0.0 | 2.0 | 0.01 | 0.34 | 0.14 | 90 | 1010.8 |
| 20260505122014 | 57 | 89 | 0.0 | 2.0 | 0.01 | 0.34 | 0.14 | 90 | 1010.7 |
| 20260505121543 | 57 | 89 | 0.0 | 2.0 | 0.01 | 0.34 | 0.12 | 90 | 1016.1 |
| 20260505121529 | 57 | 0 | 0.0 | 2.0 | 0.01 | 0.34 | 0.14 | 90 | 1010.7 |
| 20260505121011 | 57 | 0 | 0.0 | 2.0 | 0.01 | 0.34 | 0.14 | 90 | 1010.7 |
| 20260505120511 | 57 | 0 | 0.0 | 4.0 | 0.01 | 0.34 | 0.14 | 90 | 1010.9 |
| 20260505120049 | 57 | 89 | 0.0 | 4.0 | 0.01 | 0.34 | 0.12 | 91 | 1015.9 |
| 20260505120038 | 56 | 0 | 0.0 | 4.0 | 0.01 | 0.34 | 0.14 | 90 | 1010.4 |
| 20260505115513 | 56 | 89 | 2.0 | 4.0 | 0.01 | 0.34 | 0.14 | 90 | 1010.3 |
| 20260505115010 | 56 | 89 | 0.0 | 3.0 | 0.01 | 0.34 | 0.14 | 90 | 1010.7 |
| 20260505114545 | 57 | 89 | 0.0 | 3.0 | 0.01 | 0.34 | 0.12 | 91 | 1016.0 |
| 20260505114528 | 57 | 89 | 1.0 | 3.0 | 0.01 | 0.34 | 0.14 | 90 | 1010.7 |
| 20260505114010 | 57 | 89 | 1.0 | 4.0 | 0.01 | 0.34 | 0.14 | 91 | 1010.5 |
| 20260505113514 | 57 | 89 | 1.0 | 4.0 | 0.01 | 0.33 | 0.13 | 91 | 1010.4 |
| 20260505113039 | 57 | 89 | 1.0 | 4.0 | 0.01 | 0.33 | 0.11 | 91 | 1015.6 |
| 20260505113033 | 57 | 89 | 1.0 | 6.0 | 0.01 | 0.33 | 0.13 | 91 | 1010.3 |
| 20260505112510 | 57 | 89 | 1.0 | 6.0 | 0.01 | 0.33 | 0.13 | 91 | 1010.6 |
| 20260505112011 | 57 | 89 | 1.0 | 5.0 | 0.01 | 0.33 | 0.13 | 91 | 1010.8 |
| 20260505111536 | 57 | 89 | 1.0 | 3.0 | 0.01 | 0.33 | 0.11 | 91 | 1016.2 |
| 20260505111532 | 57 | 89 | 1.0 | 3.0 | 0.01 | 0.33 | 0.13 | 91 | 1011.0 |
| 20260505111014 | 57 | 89 | 1.0 | 4.0 | 0.01 | 0.33 | 0.13 | 91 | 1011.0 |
| 20260505110514 | 57 | 89 | 1.0 | 6.0 | 0.01 | 0.33 | 0.13 | 91 | 1011.0 |
| 20260505102015 | 57 | 90 | 2.0 | 8.0 | 0.01 | 0.32 | 0.12 | 91 | 1011.0 |
| 20260505101539 | 57 | 90 | 3.0 | 8.0 | 0.01 | 0.32 | 0.10 | 91 | 1016.2 |
| 20260505101528 | 57 | 90 | 4.0 | 8.0 | 0.01 | 0.32 | 0.12 | 91 | 1011.0 |
| 20260505101010 | 57 | 90 | 1.0 | 7.0 | 0.01 | 0.32 | 0.12 | 91 | 1011.4 |
| 20260505100516 | 57 | 90 | 2.0 | 7.0 | 0.02 | 0.32 | 0.12 | 91 | 1011.8 |
| 20260505100030 | 57 | 90 | 3.0 | 6.0 | 0.02 | 0.32 | 0.12 | 91 | 1012.0 |
| 20260505095509 | 57 | 90 | 1.0 | 9.0 | 0.02 | 0.32 | 0.12 | 91 | 1012.1 |
| 20260505095013 | 57 | 90 | 2.0 | 9.0 | 0.03 | 0.32 | 0.12 | 91 | 1012.0 |
| 20260505094532 | 57 | 91 | 3.0 | 9.0 | 0.03 | 0.32 | 0.12 | 91 | 1011.9 |
| 20260505094530 | 57 | 90 | 3.0 | 9.0 | 0.03 | 0.32 | 0.10 | 92 | 1017.0 |
| 20260505094011 | 57 | 91 | 4.0 | 8.0 | 0.03 | 0.32 | 0.12 | 91 | 1012.0 |
| 20260505093513 | 57 | 91 | 1.0 | 7.0 | 0.03 | 0.32 | 0.12 | 91 | 1011.9 |
| 20260505093031 | 57 | 91 | 3.0 | 11.0 | 0.03 | 0.32 | 0.12 | 91 | 1012.0 |
| 20260505093026 | 57 | 91 | 3.0 | 7.0 | 0.03 | 0.32 | 0.10 | 92 | 1017.1 |
| 20260505092510 | 57 | 91 | 2.0 | 11.0 | 0.03 | 0.32 | 0.12 | 91 | 1012.2 |
| 20260505092013 | 57 | 93 | 4.0 | 12.0 | 0.03 | 0.31 | 0.11 | 91 | 1012.2 |
| 20260505091531 | 57 | 90 | 4.0 | 13.0 | 0.03 | 0.31 | 0.11 | 91 | 1012.3 |
| 20260505091527 | 57 | 90 | 3.0 | 12.0 | 0.03 | 0.31 | 0.09 | 92 | 1017.4 |
| 20260505091014 | 57 | 89 | 6.0 | 13.0 | 0.02 | 0.30 | 0.10 | 91 | 1012.1 |
| 20260505090508 | 57 | 83 | 6.0 | 13.0 | 0.03 | 0.30 | 0.10 | 91 | 1012.2 |
| 20260505090028 | 58 | 104 | 7.0 | 13.0 | 0.03 | 0.30 | 0.10 | 91 | 1012.2 |
| 20260505090023 | 58 | 105 | 9.0 | 13.0 | 0.03 | 0.30 | 0.08 | 91 | 1017.2 |
| 20260505085510 | 58 | 72 | 2.0 | 9.0 | 0.03 | 0.30 | 0.10 | 91 | 1012.4 |
| 20260505085011 | 58 | 72 | 4.0 | 9.0 | 0.03 | 0.29 | 0.09 | 91 | 1012.3 |
| 20260505084540 | 58 | 71 | 1.0 | 9.0 | 0.04 | 0.29 | 0.09 | 91 | 1012.7 |
| 20260505084533 | 58 | 71 | 1.0 | 8.0 | 0.04 | 0.28 | 0.07 | 92 | 1017.7 |
| 20260505084010 | 58 | 71 | 3.0 | 9.0 | 0.04 | 0.29 | 0.09 | 91 | 1012.8 |
| 20260505083511 | 58 | 71 | 3.0 | 8.0 | 0.05 | 0.29 | 0.09 | 91 | 1012.9 |
| 20260505083030 | 58 | 71 | 3.0 | 8.0 | 0.06 | 0.29 | 0.09 | 91 | 1012.9 |
| 20260505083020 | 58 | 71 | 4.0 | 8.0 | 0.06 | 0.28 | 0.07 | 91 | 1017.8 |
| 20260505082511 | 58 | 67 | 2.0 | 6.0 | 0.06 | 0.28 | 0.08 | 90 | 1013.0 |
| 20260505082008 | 58 | 67 | 2.0 | 4.0 | 0.07 | 0.28 | 0.08 | 90 | 1013.4 |
| 20260505081532 | 58 | 67 | 1.0 | 3.0 | 0.07 | 0.28 | 0.08 | 90 | 1013.9 |
| 20260505081514 | 58 | 67 | 1.0 | 3.0 | 0.07 | 0.28 | 0.06 | 90 | 1018.8 |
| 20260505081012 | 58 | 0 | 0.0 | 3.0 | 0.07 | 0.28 | 0.08 | 90 | 1014.2 |
| 20260505080510 | 58 | 67 | 0.0 | 3.0 | 0.07 | 0.27 | 0.07 | 90 | 1014.0 |
| 20260505080033 | 58 | 67 | 1.0 | 4.0 | 0.07 | 0.27 | 0.07 | 90 | 1014.1 |
| 20260505080020 | 58 | 67 | 1.0 | 4.0 | 0.07 | 0.27 | 0.05 | 90 | 1019.0 |
| 20260505075510 | 58 | 0 | 1.0 | 4.0 | 0.07 | 0.27 | 0.07 | 90 | 1014.2 |
| 20260505075015 | 58 | 0 | 0.0 | 2.0 | 0.07 | 0.26 | 0.06 | 90 | 1014.5 |
| 20260505074532 | 58 | 67 | 0.0 | 2.0 | 0.06 | 0.25 | 0.05 | 90 | 1014.5 |
| 20260505074511 | 58 | 67 | 0.0 | 2.0 | 0.06 | 0.25 | 0.03 | 90 | 1019.4 |
| 20260505074011 | 58 | 0 | 0.0 | 2.0 | 0.07 | 0.25 | 0.05 | 90 | 1014.5 |
| 20260505073512 | 58 | 0 | 0.0 | 0.0 | 0.06 | 0.24 | 0.04 | 90 | 1014.6 |
| 20260505073040 | 58 | 0 | 0.0 | 1.0 | 0.06 | 0.23 | 0.03 | 89 | 1014.7 |
| 20260505073008 | 59 | 67 | 0.0 | 1.0 | 0.06 | 0.23 | 0.01 | 90 | 1019.5 |
| 20260505072511 | 58 | 0 | 0.0 | 1.0 | 0.05 | 0.22 | 0.02 | 89 | 1014.6 |
| 20260505072010 | 58 | 0 | 0.0 | 2.0 | 0.05 | 0.21 | 0.01 | 89 | 1014.7 |
| 20260505071532 | 58 | 0 | 0.0 | 2.0 | 0.05 | 0.21 | 0.01 | 89 | 1014.4 |
| 20260505071505 | 59 | 67 | 0.0 | 2.0 | 0.05 | 0.21 | 0.21 | 90 | 1019.3 |
| 20260505071015 | 58 | 0 | 0.0 | 0.0 | 0.06 | 0.21 | 0.01 | 89 | 1014.4 |
| 20260505070509 | 58 | 0 | 0.0 | 0.0 | 0.05 | 0.20 | 0.00 | 89 | 1014.5 |
| 20260505070039 | 58 | 0 | 0.0 | 0.0 | 0.06 | 0.20 | 0.00 | 89 | 1014.5 |
| 20260505070004 | 59 | 67 | 0.0 | 0.0 | 0.06 | 0.20 | 0.20 | 89 | 1019.3 |
| 20260505065508 | 58 | 0 | 0.0 | 1.0 | 0.06 | 0.20 | 0.20 | 89 | 1014.5 |
| 20260505065012 | 58 | 0 | 0.0 | 2.0 | 0.05 | 0.19 | 0.19 | 89 | 1014.4 |
| 20260505064533 | 58 | 0 | 0.0 | 2.0 | 0.05 | 0.19 | 0.19 | 89 | 1014.4 |
| 20260505064503 | 59 | 67 | 0.0 | 2.0 | 0.05 | 0.19 | 0.19 | 89 | 1019.2 |
| 20260505064008 | 59 | 67 | 0.0 | 2.0 | 0.04 | 0.18 | 0.18 | 89 | 1014.4 |
| 20260505063507 | 59 | 67 | 0.0 | 2.0 | 0.05 | 0.18 | 0.18 | 89 | 1014.5 |
| 20260505063031 | 58 | 0 | 0.0 | 2.0 | 0.04 | 0.17 | 0.17 | 89 | 1014.4 |
| 20260505063005 | 59 | 67 | 0.0 | 2.0 | 0.04 | 0.17 | 0.17 | 89 | 1019.2 |
| 20260505062512 | 58 | 67 | 1.0 | 2.0 | 0.04 | 0.17 | 0.17 | 89 | 1014.4 |
| 20260505062015 | 58 | 0 | 0.0 | 3.0 | 0.04 | 0.16 | 0.16 | 89 | 1014.3 |
| 20260505061538 | 58 | 0 | 0.0 | 4.0 | 0.04 | 0.16 | 0.16 | 89 | 1014.3 |
| 20260505061502 | 58 | 67 | 0.0 | 3.0 | 0.05 | 0.16 | 0.16 | 89 | 1019.0 |
| 20260505061011 | 58 | 67 | 0.0 | 4.0 | 0.04 | 0.15 | 0.15 | 89 | 1014.2 |
| 20260505060517 | 58 | 67 | 1.0 | 4.0 | 0.04 | 0.15 | 0.15 | 89 | 1014.1 |
| 20260505060029 | 58 | 67 | 1.0 | 3.0 | 0.04 | 0.14 | 0.14 | 89 | 1014.0 |
| 20260505060002 | 58 | 67 | 1.0 | 3.0 | 0.04 | 0.14 | 0.14 | 89 | 1018.8 |
| 20260505055511 | 58 | 0 | 0.0 | 2.0 | 0.04 | 0.14 | 0.14 | 89 | 1014.1 |
| 20260505055015 | 58 | 0 | 0.0 | 2.0 | 0.04 | 0.14 | 0.14 | 89 | 1014.0 |
| 20260505054536 | 58 | 0 | 0.0 | 2.0 | 0.05 | 0.14 | 0.14 | 89 | 1014.1 |
| 20260505054502 | 59 | 67 | 0.0 | 1.0 | 0.05 | 0.14 | 0.14 | 89 | 1018.8 |
| 20260505054014 | 58 | 0 | 0.0 | 2.0 | 0.04 | 0.13 | 0.13 | 89 | 1014.1 |
| 20260505053516 | 58 | 0 | 0.0 | 3.0 | 0.05 | 0.13 | 0.13 | 89 | 1014.0 |
| 20260505053103 | 59 | 67 | 0.0 | 3.0 | 0.05 | 0.13 | 0.13 | 89 | 1018.8 |
| 20260505053031 | 58 | 0 | 1.0 | 3.0 | 0.05 | 0.13 | 0.13 | 89 | 1014.2 |
| 20260505052509 | 58 | 67 | 0.0 | 1.0 | 0.04 | 0.12 | 0.12 | 88 | 1014.2 |
| 20260505052013 | 58 | 0 | 0.0 | 1.0 | 0.05 | 0.12 | 0.12 | 88 | 1014.3 |
| 20260505051600 | 58 | 67 | 0.0 | 3.0 | 0.04 | 0.11 | 0.11 | 88 | 1019.0 |
| 20260505051532 | 58 | 0 | 0.0 | 3.0 | 0.04 | 0.11 | 0.11 | 88 | 1014.3 |
| 20260505051011 | 58 | 0 | 0.0 | 3.0 | 0.04 | 0.11 | 0.11 | 88 | 1014.3 |
| 20260505050509 | 58 | 0 | 0.0 | 2.0 | 0.04 | 0.11 | 0.11 | 88 | 1014.1 |